[[{"header":{"parameterUnit":"m.s-1","parameterCategory":1,"la1":30.2991,"la2":30.254,"lo1":-89.0895,"lo2":-89.0444,"dy":0.0017,"dx":0.0017,"nx":28,"ny":28,"refTime":"2024-10-10T09:00:00:Z","depth":0,"parameterNumber":2,"parameterNumberName":"U-component_of_WINDS"},"data":[0,0,0,0,0,0,0,0,0,0,0,0,0,0,0,0,0,0,0,0,0,0,0,0,0,0,0,0,0,0,0,0,0,0,0,0,0,0,0,0,0,0,0,0,0,0,0,0,0,0,0,0,0,0,0,0,0,0,-2.997,-2.9971,0,-3.0057,-3.0057,-3.0058,-2.9945,-2.9941,-2.9937,-2.9933,-3.0025,-3.0031,-3.0037,0,0,0,0,0,0,0,0,0,0,0,0,0,-2.9711,-2.9716,-2.997,-2.9971,-2.9973,-3.0056,-3.0058,-3.0059,-2.9946,-2.9941,-2.9936,-2.9931,-3.0023,-3.003,-3.0038,0,0,0,0,0,0,0,0,0,0,0,0,0,-2.9813,-2.9718,-2.997,-2.9926,-2.9923,-3.0056,-3.0058,-3.0059,-2.9947,-2.994,-2.9934,-2.9929,-3.002,-3.0029,-3.0039,-3.022,0,0,-3.0068,-3.0072,0,0,0,0,0,0,0,0,-2.9807,-2.9823,-2.9931,-2.9929,-2.9926,-2.9983,-2.9999,-3.0113,-2.9948,-2.9938,-2.9933,-2.9925,-3.0016,-3.0026,-3.0055,-3.0225,-3.0229,-3.0068,-3.0074,-3.0078,-3.0081,0,0,0,0,0,0,0,-2.98,-2.9818,-3.0004,-2.9933,-2.993,-2.9903,-2.9911,-3.0021,-3.0011,-2.9938,-2.993,-2.9942,-3.0014,-3.0047,-3.0057,-3.023,-3.0068,-3.0076,-3.0082,-3.0086,-3.0553,-3.0559,0,0,0,0,0,0,-2.9798,-2.9813,-3.0002,-3.0007,-2.985,-2.9913,-2.9921,-2.9971,-3.0009,-3.0009,-2.9947,-2.9936,-3.0034,-3.0046,-3.006,-3.0276,-3.0078,-3.0087,-3.0092,-3.0546,-3.0554,-3.0562,0,0,0,0,0,0,-2.9793,-2.9816,-2.9998,-2.9908,-2.9929,-2.9924,-2.9981,-2.9976,-3.0009,-3.0016,-3.0014,-2.9982,-3.0029,-3.0046,-3.0181,-3.0277,-3.0091,-3.01,-3.0538,-3.0549,-3.0558,-3.0709,0,0,0,0,0,0,-2.9786,-2.9815,-2.9883,-2.991,-2.9934,-3.0118,-2.9987,-2.9983,-3.0025,-3.0012,-3.0048,-3.0049,-3.0026,-3.0168,-3.0191,-3.0287,-3.0107,-3.053,-3.0543,-3.0555,-3.0695,-3.0723,-3.0746,0,0,0,0,0,-2.9777,-2.9923,-2.9887,-2.9911,-3.002,-3.0124,-3.0138,-3.0107,-3.0033,-3.0103,-3.0107,-3.0047,-3.0262,-3.0182,-3.0207,-3.0308,-3.0523,-3.0539,-3.0554,-3.0684,-3.0717,-3.0746,0,0,0,0,0,0,-2.9909,-2.9926,-2.9886,-3.0045,-3.0084,-3.0104,-3.0191,-3.0144,-3.0205,-3.019,-3.0151,-3.016,-3.0304,-3.0319,-3.0229,-3.0486,-3.0381,-3.0402,-3.0471,-3.0503,-3.0528,-3.0523,-3.0115,0,0,0,0,0,-2.9956,-3.0039,-3.0049,-3.0188,-3.0209,-3.0197,-3.0241,-3.0214,-3.0253,-3.0269,-3.0283,-3.0324,-3.0401,-3.0452,-3.0523,-3.0696,-3.0703,-3.0777,-3.0803,-3.0823,-3.0843,-3.0936,-3.0969,-3.0611,-3.0611,-3.0611,0,0,-3.0056,-3.0075,-3.013,-3.0215,-3.0242,-3.0329,-3.0212,-3.0309,-3.0373,-3.0284,-3.0413,-3.0424,-3.0467,-3.0622,-3.0691,-3.0639,-3.0943,-3.0843,-3.086,-3.0868,-3.0955,-3.0989,-3.1019,-3.0622,-3.062,-3.0618,0,0,-3.0281,-3.0304,-3.0422,-3.0451,-3.0492,-3.0483,-3.0511,-3.0539,-3.0543,-3.067,-3.0605,-3.0682,-3.0814,-3.0848,-3.0882,-3.1119,-3.1068,-3.1143,-3.1278,-3.1369,-3.1397,-3.1422,-3.1508,-3.1539,-3.1162,-3.1162,-3.1163,0,-3.04,-3.0528,-3.049,-3.0591,-3.0631,-3.0553,-3.0673,-3.0703,-3.0766,-3.0796,-3.0736,-3.0901,-3.0924,-3.1086,-3.1144,-3.1174,-3.1206,-3.114,-3.1396,-3.1421,-3.1443,-3.1525,-3.1557,-3.1172,-3.117,-3.117,-3.1169,0,-3.0672,-3.0762,-3.0853,-3.0914,-3.0964,-3.1075,-3.1054,-3.111,-3.1078,-3.1075,-3.1206,-3.1231,-3.1306,-3.1341,-3.1312,-3.15,-3.1466,-3.1402,-3.1296,-3.1487,-3.1563,-3.1594,-3.1185,-3.1181,-3.1179,-3.1176,0,0,-3.0986,-3.1024,-3.1058,-3.1085,-3.1124,-3.1193,-3.13,-3.1371,-3.142,-3.1466,-3.1556,-3.1669,-3.1609,-3.1649,-3.1622,-3.1702,-3.189,-3.1628,-3.1628,-3.1677,-3.2099,-3.2149,-3.2185,-3.1854,-3.186,-3.1864,-3.2096,0,-3.1213,-3.1397,-3.1365,-3.1545,-3.1627,-3.1553,-3.1646,-3.1681,-3.1681,-3.1752,-3.1752,-3.1833,-3.1748,-3.1771,-3.1847,-3.1851,-3.1974,-3.1833,-3.1939,-3.1943,-3.1933,-3.2225,-3.2278,-3.2495,-3.2125,-3.213,-3.2134,0,-3.1503,-3.1558,-3.1745,-3.1771,-3.1804,-3.1889,-3.1952,-3.202,-3.2057,-3.2052,-3.2095,-3.2053,-3.2161,-3.2052,-3.22,-3.2105,-3.2146,-3.2155,-3.2162,-3.2173,-3.2052,-3.2245,-3.2563,-3.2597,-3.218,-3.2176,-3.2173,0,-3.1715,-3.1836,-3.1963,-3.1988,-3.2021,-3.2083,-3.2099,-3.213,-3.2175,-3.2231,-3.226,-3.2327,-3.2365,-3.2418,-3.2396,-3.2318,-3.255,-3.2438,-3.2549,-3.255,-3.2604,-3.2601,-3.2935,-3.2627,-3.2626,-3.2626,-3.2625,0,-3.1973,-3.2091,-3.2059,-3.2138,-3.2268,-3.223,-3.2361,-3.2368,-3.2397,-3.2477,-3.2416,-3.2493,-3.2458,-3.2532,-3.2515,-3.2641,-3.2658,-3.2658,-3.2653,-3.2665,-3.2665,-3.2693,-3.2678,-3.2634,-3.2632,-3.2631,-3.2629,0,-3.2233,-3.2216,-3.2351,-3.237,-3.2377,-3.2473,-3.249,-3.2564,-3.2558,-3.266,-3.2682,-3.2674,-3.2758,-3.274,-3.2833,-3.2822,-3.2981,-3.2956,-3.2968,-3.2963,-3.3076,-3.3066,-3.3441,-3.3489,-3.3148,-3.3151,-3.3154,0,-3.24,-3.2488,-3.2517,-3.2565,-3.2586,-3.2665,-3.271,-3.2676,-3.2726,-3.2775,-3.2844,-3.2922,-3.2983,-3.3122,-3.3125,-3.3195,-3.3173,-3.3299,-3.3183,-3.3193,-3.3177,-3.3173,-3.3182,-3.3323,-3.3327,-3.333,-3.3333,0,-3.2698,-3.2685,-3.2752,-3.2816,-3.2871,-3.2921,-3.2964,-3.3008,-3.2977,-3.3036,-3.3121,-3.3168,-3.3262,-3.3341,-3.3406,-3.3424,-3.3375,-3.3369,-3.3398,-3.3413,-3.3417,-3.3418,-3.3033,-3.3361,-3.3358,-3.3356,-3.3354,-3.3353,-3.2918,-3.2993,-3.3025,-3.3101,-3.313,-3.3172,-3.3243,-3.3245,-3.3315,-3.3388,-3.3363,-3.346,-3.3495,-3.3578,-3.3603,-3.3679,-3.3632,-3.3675,-3.3686,-3.3698,-3.3712,-3.3403,-3.3691,-3.369,-3.3689,-3.3688,-3.3688,0,-3.3214,-3.323,-3.3301,-3.3363,-3.3424,-3.3369,-3.3414,-3.3469,-3.3554,-3.359,-3.3651,-3.3749,-3.3825,-3.3833,-3.3905,-3.3965,-3.3944,-3.3985,-3.3982,-3.3987,-3.375,-3.3717,-3.4001,-3.4001,-3.4001,-3.4001,-3.4001,-3.4001,-3.3376,-3.3501,-3.3492,-3.3631,-3.3646,-3.374,-3.3771,-3.3809,-3.3838,-3.3949,-3.4012,-3.4016,-3.4041,-3.4114,-3.4182,-3.4182,-3.4213,-3.4264,-3.4256,-3.4035,-3.4003,-3.3974,-3.3943,-3.427,-3.427,-3.4487,-3.4489,-3.449]},{"header":{"parameterUnit":"m.s-1","parameterCategory":1,"la1":30.2991,"la2":30.254,"lo1":-89.0895,"lo2":-89.0444,"dy":0.0017,"dx":0.0017,"nx":28,"ny":28,"refTime":"2024-10-10T09:00:00:Z","depth":0,"parameterNumber":3,"parameterNumberName":"V-component_of_WINDS"},"data":[0,0,0,0,0,0,0,0,0,0,0,0,0,0,0,0,0,0,0,0,0,0,0,0,0,0,0,0,0,0,0,0,0,0,0,0,0,0,0,0,0,0,0,0,0,0,0,0,0,0,0,0,0,0,0,0,0,0,-3.2318,-3.2317,0,-3.2272,-3.2272,-3.2271,-3.2204,-3.2203,-3.2202,-3.2201,-3.2154,-3.2154,-3.2154,0,0,0,0,0,0,0,0,0,0,0,0,0,-3.2344,-3.2344,-3.2318,-3.2317,-3.2317,-3.2273,-3.2272,-3.2271,-3.2204,-3.2203,-3.2201,-3.22,-3.2154,-3.2154,-3.2154,0,0,0,0,0,0,0,0,0,0,0,0,0,-3.2319,-3.2344,-3.2318,-3.2278,-3.2274,-3.2273,-3.2272,-3.2271,-3.2205,-3.2203,-3.2201,-3.2199,-3.2154,-3.2154,-3.2154,-3.2188,0,0,-3.2153,-3.2153,0,0,0,0,0,0,0,0,-3.2321,-3.2318,-3.2284,-3.2281,-3.2276,-3.2242,-3.2264,-3.2243,-3.2205,-3.2231,-3.2201,-3.2199,-3.2185,-3.2182,-3.2177,-3.2185,-3.2183,-3.2153,-3.2153,-3.2153,-3.2153,0,0,0,0,0,0,0,-3.2323,-3.232,-3.23,-3.2284,-3.2279,-3.2262,-3.2256,-3.226,-3.2218,-3.2229,-3.2224,-3.2219,-3.2182,-3.2178,-3.2176,-3.2183,-3.2153,-3.2153,-3.2153,-3.2152,-3.2213,-3.2214,0,0,0,0,0,0,-3.233,-3.2322,-3.2301,-3.2298,-3.2295,-3.2263,-3.2256,-3.2255,-3.2218,-3.2211,-3.2221,-3.2216,-3.2179,-3.2176,-3.2174,-3.2208,-3.2153,-3.2152,-3.2152,-3.2211,-3.2213,-3.2215,0,0,0,0,0,0,-3.2331,-3.2329,-3.2303,-3.2309,-3.2304,-3.2264,-3.2263,-3.2255,-3.225,-3.2212,-3.2204,-3.2224,-3.2177,-3.2174,-3.2184,-3.2206,-3.2152,-3.2152,-3.2209,-3.2212,-3.2214,-3.228,0,0,0,0,0,0,-3.2332,-3.233,-3.2343,-3.231,-3.2304,-3.2315,-3.2264,-3.2255,-3.225,-3.2244,-3.2213,-3.2206,-3.2176,-3.2185,-3.2184,-3.2205,-3.2152,-3.2207,-3.221,-3.2213,-3.2276,-3.2285,-3.2292,0,0,0,0,0,-3.2333,-3.2364,-3.2344,-3.2342,-3.232,-3.2316,-3.2313,-3.2278,-3.2252,-3.2264,-3.2239,-3.2207,-3.2204,-3.2186,-3.2185,-3.2206,-3.2205,-3.2209,-3.2213,-3.2272,-3.2283,-3.2292,0,0,0,0,0,0,-3.2402,-3.2359,-3.2337,-3.2357,-3.2341,-3.2305,-3.232,-3.2291,-3.2281,-3.2276,-3.2232,-3.2225,-3.224,-3.2224,-3.2205,-3.2235,-3.2199,-3.2203,-3.2245,-3.2255,-3.2263,-3.2266,-3.2152,0,0,0,0,0,-3.242,-3.2421,-3.2383,-3.2405,-3.2398,-3.2361,-3.2358,-3.2332,-3.2313,-3.2305,-3.2281,-3.2264,-3.2258,-3.2256,-3.2249,-3.2273,-3.2264,-3.2287,-3.2295,-3.2302,-3.2306,-3.2314,-3.2323,-3.2228,-3.2228,-3.2228,0,0,-3.2456,-3.2433,-3.2436,-3.2418,-3.2403,-3.2404,-3.2355,-3.2359,-3.2359,-3.2306,-3.2313,-3.2295,-3.2272,-3.2288,-3.2294,-3.2276,-3.233,-3.2307,-3.2313,-3.2312,-3.2319,-3.2328,-3.2336,-3.223,-3.223,-3.223,0,0,-3.2522,-3.2506,-3.2521,-3.2505,-3.2482,-3.2456,-3.246,-3.2428,-3.2413,-3.242,-3.2379,-3.2378,-3.2371,-3.2355,-3.2346,-3.2404,-3.2373,-3.2403,-3.2446,-3.2455,-3.2462,-3.2468,-3.2486,-3.2494,-3.2407,-3.2407,-3.2407,0,-3.257,-3.257,-3.2532,-3.2538,-3.253,-3.2482,-3.2495,-3.2482,-3.2458,-3.2453,-3.2433,-3.242,-3.2402,-3.2412,-3.2426,-3.2422,-3.2423,-3.2406,-3.2464,-3.247,-3.2475,-3.2492,-3.2499,-3.2411,-3.2411,-3.241,-3.241,0,-3.2629,-3.263,-3.2645,-3.2621,-3.2616,-3.2626,-3.2588,-3.2586,-3.256,-3.2536,-3.2542,-3.2518,-3.2504,-3.2505,-3.248,-3.2511,-3.2499,-3.2472,-3.2435,-3.2489,-3.2503,-3.251,-3.2416,-3.2415,-3.2414,-3.2413,0,0,-3.2738,-3.2691,-3.2697,-3.2685,-3.2654,-3.2654,-3.266,-3.2646,-3.2645,-3.2629,-3.2632,-3.2626,-3.26,-3.259,-3.2563,-3.2571,-3.2614,-3.2542,-3.254,-3.2554,-3.2643,-3.2663,-3.2671,-3.2594,-3.2595,-3.2596,-3.2644,0,-3.2796,-3.2805,-3.277,-3.2787,-3.2786,-3.2739,-3.2745,-3.2726,-3.2703,-3.2698,-3.2673,-3.2668,-3.2635,-3.2629,-3.2634,-3.2608,-3.2631,-3.2604,-3.2594,-3.2594,-3.26,-3.2679,-3.27,-3.2747,-3.265,-3.2651,-3.2652,0,-3.2865,-3.2852,-3.287,-3.2836,-3.2834,-3.284,-3.2822,-3.2819,-3.2795,-3.2778,-3.2766,-3.2734,-3.2737,-3.2702,-3.2704,-3.2686,-3.268,-3.2666,-3.2667,-3.2663,-3.2625,-3.2675,-3.2762,-3.2768,-3.2661,-3.266,-3.266,0,-3.294,-3.2927,-3.2934,-3.2926,-3.2887,-3.2891,-3.2875,-3.285,-3.2843,-3.2828,-3.2822,-3.2808,-3.28,-3.2789,-3.2753,-3.2732,-3.2758,-3.2721,-3.2742,-3.2743,-3.2748,-3.2748,-3.2833,-3.2748,-3.2748,-3.2748,-3.2748,0,-3.3007,-3.3019,-3.2967,-3.2972,-3.2983,-3.2941,-3.2953,-3.2932,-3.291,-3.2909,-3.2868,-3.2867,-3.2821,-3.2815,-3.2787,-3.279,-3.2788,-3.2772,-3.2764,-3.2775,-3.2777,-3.2769,-3.2764,-3.275,-3.2749,-3.2749,-3.2748,0,-3.3092,-3.3057,-3.3062,-3.3025,-3.3015,-3.3025,-3.2992,-3.2994,-3.2968,-3.2967,-3.2964,-3.2924,-3.2914,-3.2877,-3.2859,-3.284,-3.2852,-3.2838,-3.286,-3.2854,-3.2876,-3.2874,-3.2957,-3.2965,-3.2878,-3.2879,-3.2879,0,-3.3136,-3.3144,-3.3107,-3.3103,-3.3088,-3.3083,-3.3075,-3.3034,-3.3028,-3.3,-3.3005,-3.2992,-3.2979,-3.2965,-3.2934,-3.2918,-3.2902,-3.2933,-3.29,-3.2909,-3.29,-3.2899,-3.2898,-3.2939,-3.2941,-3.2942,-3.2942,0,-3.3218,-3.32,-3.3191,-3.3175,-3.3166,-3.3152,-3.3135,-3.3134,-3.3088,-3.3082,-3.3071,-3.3061,-3.3042,-3.3028,-3.3008,-3.299,-3.2958,-3.2953,-3.2956,-3.2966,-3.2978,-3.2969,-3.2877,-3.2951,-3.295,-3.295,-3.2949,-3.2949,-3.3282,-3.3286,-3.3259,-3.3249,-3.3232,-3.3217,-3.3216,-3.3189,-3.318,-3.316,-3.3137,-3.3128,-3.3102,-3.3071,-3.3055,-3.3047,-3.3029,-3.3035,-3.3036,-3.3038,-3.3042,-3.298,-3.3043,-3.3043,-3.3043,-3.3042,-3.3042,0,-3.336,-3.334,-3.3331,-3.3308,-3.33,-3.3271,-3.325,-3.3244,-3.3237,-3.3216,-3.3204,-3.319,-3.3176,-3.3143,-3.3125,-3.3125,-3.3109,-3.3121,-3.312,-3.3116,-3.306,-3.3057,-3.3134,-3.3134,-3.3134,-3.3134,-3.3134,-3.3134,-3.3399,-3.3403,-3.3381,-3.3375,-3.3355,-3.3346,-3.3337,-3.3321,-3.3303,-3.329,-3.3278,-3.3256,-3.3229,-3.3209,-3.3194,-3.3185,-3.3179,-3.3195,-3.3181,-3.3129,-3.312,-3.3112,-3.3109,-3.3195,-3.3195,-3.3237,-3.3237,-3.3238]}]]